This is the latest recevied weather packets stored in our database for station/object EA1HTW-13. If no packets are shown the sender has not sent any weather packets the latest 10 day(s).
| Time | Temp. | Humidity | Pressure | Rain* | Wind** | Luminosity | Snow |
|---|---|---|---|---|---|---|---|
| 1778077575 | 17.78° C | 60% | 1007.4 hPa | 0 mm | - | - | - |
| 1778077034 | 17.78° C | 56% | 1007.6 hPa | 0 mm | - | - | - |
| 1778076494 | 17.78° C | 56% | 1007.6 hPa | 0 mm | - | - | - |
| 1778075955 | 18.33° C | 55% | 1007.7 hPa | 0 mm | - | - | - |
| 1778075415 | 18.33° C | 58% | 1007.7 hPa | 0 mm | - | - | - |
| 1778074875 | 18.33° C | 56% | 1007.8 hPa | 0 mm | - | - | - |
| 1778074334 | 18.89° C | 55% | 1007.7 hPa | 0 mm | - | - | - |
| 1778073794 | 18.89° C | 54% | 1007.9 hPa | 0 mm | - | - | - |
| 1778073254 | 19.44° C | 51% | 1007.6 hPa | 0 mm | - | - | - |
| 1778072715 | 20.56° C | 50% | 1007.7 hPa | 0 mm | - | - | - |
| 1778072175 | 20.56° C | 50% | 1007.6 hPa | 0 mm | - | - | - |
| 1778071635 | 20.56° C | 51% | 1007.6 hPa | 0 mm | - | - | - |
| 1778071094 | 20° C | 51% | 1007.6 hPa | 0 mm | - | - | - |
| 1778070554 | 19.44° C | 49% | 1007.8 hPa | 0 mm | - | - | - |
| 1778070015 | 18.89° C | 48% | 1007.9 hPa | 0 mm | - | - | - |
| 1778069474 | 19.44° C | 46% | 1008 hPa | 0 mm | - | - | - |
| 1778068934 | 20° C | 46% | 1008.1 hPa | 0 mm | - | - | - |
| 1778068395 | 19.44° C | 48% | 1008 hPa | 0 mm | - | - | - |
| 1778067854 | 19.44° C | 47% | 1008.2 hPa | 0 mm | - | - | - |
| 1778067314 | 19.44° C | 46% | 1008.3 hPa | 0 mm | - | - | - |
| 1778066774 | 18.89° C | 47% | 1008.4 hPa | 0 mm | - | - | - |
| 1778066234 | 18.33° C | 48% | 1008.4 hPa | 0 mm | - | - | - |
| 1778065694 | 18.33° C | 48% | 1008.5 hPa | 0 mm | - | - | - |
| 1778065155 | 18.33° C | 47% | 1008.4 hPa | 0 mm | - | - | - |
| 1778064615 | 18.33° C | 49% | 1008.6 hPa | 0 mm | - | - | - |
* Rain latest hour (hover to see other rain measurements)
** Current wind speed in m/s (hover to see current wind gust speed)